Location: *
(50.3440°N, 18.6237°E)
Time: 13:43:49
(UTC+00:00)

Cosmos 1624 Rocket - Pass Details

Date: 30 November 2020
Orbit: 758 x 783 km, 74.0° (Epoch: 27 January)

Event Time Altitude Azimuth Distance (km) Brightness Sun altitude
Rises 17:13:52 0° 338° (NNW) 3,275 7.5 -22.8°
Reaches altitude 10° 17:16:20 10° 343° (NNW) 2,340 6.6 -23.2°
Enters shadow 17:20:34 45° 25° (NNE) 1,051 4.4 -23.8°
